W4RJG Weather Reports


time (UTC)temp
C
wind
direction
speed
KPH
gust
KPH
rain 1hr
cm
rain 24hr
cm
rain mn
cm
humidity
%
barometer
mb
20260510134004 22 36 9.7 9.7 0.00 0.00 0.00 60 1004.7
20260510133004 21 7 1.6 4.8 0.00 0.00 0.00 66 1004.7
20260510132004 20 10 3.2 4.8 0.00 0.00 0.00 71 1004.7
20260510131004 19 146 4.8 4.8 0.00 0.00 0.00 75 1004.7
20260510130003 18 326 1.6 3.2 0.00 0.00 0.00 79 1004.7
20260510124004 16 8 0.0 3.2 0.00 0.00 0.00 90 1004.7
20260510123004 15 182 0.0 1.6 0.00 0.00 0.00 95 1004.4
20260510122004 15 342 0.0 1.6 0.00 0.00 0.00 96 1004.4
20260510121004 14 340 0.0 3.2 0.00 0.00 0.00 96 1004.4
20260510120004 14 330 0.0 0.0 0.00 0.00 0.00 96 1004.1
20260510115004 13 347 0.0 0.0 0.00 0.00 0.00 96 1004.1
20260510114004 13 284 0.0 0.0 0.00 0.00 0.00 96 1004.1
20260510113004 12 13 0.0 0.0 0.00 0.00 0.00 96 1003.7
20260510112004 11 6 0.0 0.0 0.00 0.00 0.00 96 1003.4
20260510110005 11 348 0.0 0.0 0.00 0.00 0.00 96 1003.0
20260510105004 11 23 0.0 0.0 0.00 0.00 0.00 96 1002.7
20260510104005 11 6 0.0 0.0 0.00 0.00 0.00 96 1002.7
20260510103004 11 4 0.0 0.0 0.00 0.00 0.00 96 1002.7
20260510102004 11 12 0.0 0.0 0.00 0.00 0.00 96 1002.4
20260510101004 12 11 0.0 0.0 0.00 0.00 0.00 96 1002.4
20260510095003 12 39 0.0 0.0 0.00 0.00 0.00 96 1002.4
20260510094004 12 39 0.0 0.0 0.00 0.00 0.00 95 1002.4
20260510093004 12 18 0.0 0.0 0.00 0.00 0.00 95 1002.0
20260510092004 12 21 0.0 0.0 0.00 0.00 0.00 95 1002.0
20260510091004 12 10 0.0 0.0 0.00 0.00 0.00 95 1002.0
20260510090004 13 323 0.0 0.0 0.00 0.00 0.00 95 1001.7
20260510085004 13 42 0.0 0.0 0.00 0.00 0.00 95 1001.7
20260510083004 13 8 0.0 1.6 0.00 0.00 0.00 95 1001.4
20260510082004 13 328 0.0 0.0 0.00 0.00 0.00 95 1001.4
20260510081004 13 53 0.0 0.0 0.00 0.00 0.00 95 1001.4
20260510075004 13 262 0.0 3.2 0.00 0.00 0.00 95 1001.0
20260510073004 13 290 1.6 3.2 0.00 0.00 0.00 95 1000.9
20260510071004 13 174 0.0 0.0 0.00 0.00 0.00 95 1000.7
20260510070004 13 354 0.0 0.0 0.00 0.00 0.00 95 1000.7
20260510064004 14 18 0.0 0.0 0.00 0.00 0.00 94 1000.7
20260510063004 14 52 0.0 0.0 0.00 0.00 0.00 94 1000.7
20260510062004 15 85 0.0 0.0 0.00 0.00 0.00 94 1001.0
20260510061004 15 90 0.0 0.0 0.00 0.00 0.00 94 1001.0
20260510055004 15 61 0.0 0.0 0.00 0.00 0.00 94 1001.0
20260510054003 15 348 0.0 0.0 0.00 0.00 0.00 94 1001.4
20260510052004 15 14 0.0 0.0 0.00 0.00 0.00 92 1001.4
20260510051004 16 271 0.0 0.0 0.00 0.00 0.00 92 1001.4
20260510050004 16 352 0.0 0.0 0.00 0.00 0.00 91 1001.4
20260510045004 16 193 0.0 0.0 0.00 0.00 0.00 90 1001.4
20260510043004 16 26 0.0 0.0 0.00 0.00 0.00 89 1001.4
20260510042004 17 32 0.0 0.0 0.00 0.00 0.00 88 1001.4
20260510041004 17 66 0.0 4.8 0.00 0.00 0.00 87 1001.4
20260510040004 17 341 4.8 4.8 0.00 0.00 0.00 89 1001.4
20260510035004 17 35 0.0 3.2 0.00 0.00 0.00 88 1001.4
20260510034004 17 33 0.0 0.0 0.00 0.00 0.00 86 1001.0
20260510033004 17 6 0.0 0.0 0.00 0.00 0.00 86 1001.0
20260510030004 18 19 0.0 0.0 0.00 0.00 0.00 83 1001.0
20260510025004 18 96 0.0 0.0 0.00 0.00 0.00 82 1000.7
20260510024005 18 293 0.0 3.2 0.00 0.00 0.00 81 1001.0
20260510023004 19 300 0.0 4.8 0.00 0.00 0.00 80 1001.0
20260510022004 19 323 3.2 4.8 0.00 0.00 0.00 79 1000.7
20260510021005 19 325 0.0 1.6 0.00 0.00 0.00 78 1000.7
20260510020005 20 283 1.6 3.2 0.00 0.00 0.00 77 1000.3
20260510015003 20 325 3.2 4.8 0.00 0.00 0.00 76 1000.0
20260510014004 20 284 0.0 4.8 0.00 0.00 0.00 76 1000.0
20260510012003 20 314 3.2 4.8 0.00 0.00 0.00 75 999.7
20260510011004 20 313 0.0 3.2 0.00 0.00 0.00 75 999.3
20260510010004 20 333 0.0 1.6 0.00 0.00 0.00 74 999.3
20260510004004 20 227 0.0 4.8 0.00 0.00 0.00 73 999.0
20260510003005 21 250 0.0 3.2 0.00 0.00 0.00 72 999.0
20260510002004 21 331 0.0 1.6 0.00 0.00 0.00 71 999.0
20260510001004 21 351 0.0 1.6 0.00 0.00 0.00 69 999.0
20260510000004 22 293 0.0 3.2 0.00 0.00 0.00 69 998.6
20260509235004 22 227 0.0 3.2 0.00 0.00 0.00 68 998.6
20260509234004 22 347 0.0 3.2 0.00 0.00 0.00 67 998.6
20260509232004 22 329 1.6 4.8 0.00 0.00 0.00 67 998.3
20260509230004 23 327 3.2 9.7 0.00 0.00 0.00 64 998.3
20260509225004 23 268 3.2 11.3 0.00 0.00 0.00 64 998.3
20260509224004 23 16 4.8 11.3 0.00 0.00 0.00 62 998.3
20260509223004 23 315 3.2 12.9 0.00 0.00 0.00 61 998.3
20260509222005 25 262 3.2 12.9 0.00 0.00 0.00 59 998.3
20260509220004 24 354 3.2 11.3 0.00 0.00 0.00 58 998.3
20260509215005 24 277 4.8 9.7 0.00 0.00 0.00 58 998.3
20260509214004 25 353 8.0 19.3 0.00 0.00 0.00 55 998.0
20260509213005 25 312 3.2 19.3 0.00 0.00 0.00 55 998.0
20260509212004 25 311 4.8 12.9 0.00 0.00 0.00 55 998.0
20260509210004 25 272 4.8 16.1 0.00 0.00 0.00 55 998.0
20260509205004 25 329 4.8 19.3 0.00 0.00 0.00 56 998.0
20260509203004 25 82 4.8 19.3 0.00 0.00 0.00 56 998.3
20260509202003 24 350 8.0 19.3 0.00 0.00 0.00 57 998.3
20260509201004 23 287 3.2 14.5 0.00 0.00 0.00 57 998.3
20260509200004 24 6 9.7 14.5 0.00 0.00 0.00 57 998.3
20260509195004 24 320 8.0 16.1 0.00 0.00 0.00 55 998.3
20260509194004 24 307 6.4 22.5 0.00 0.00 0.00 55 998.3
20260509193003 24 325 14.5 22.5 0.00 0.00 0.00 55 998.3
20260509192004 25 249 6.4 19.3 0.00 0.00 0.00 56 998.6
20260509191004 25 338 8.0 19.3 0.00 0.00 0.00 53 998.6
20260509190004 24 300 8.0 19.3 0.00 0.00 0.00 57 998.6
20260509185003 23 283 6.4 11.3 0.00 0.00 0.00 56 999.0
20260509184004 24 345 6.4 16.1 0.00 0.00 0.00 54 999.0
20260509183004 24 337 8.0 16.1 0.00 0.00 0.00 55 999.3
20260509182004 24 245 4.8 16.1 0.00 0.00 0.00 55 999.3
20260509181005 24 2 11.3 16.1 0.00 0.00 0.00 55 999.7
20260509180004 23 337 12.9 16.1 0.00 0.00 0.00 56 999.7
20260509175004 24 254 4.8 16.1 0.00 0.00 0.00 56 999.7
20260509174004 23 324 11.3 19.3 0.00 0.00 0.00 57 999.7
20260509173004 22 26 19.3 19.3 0.00 0.00 0.00 58 1000.0
20260509172004 23 211 8.0 16.1 0.00 0.00 0.00 58 1000.0
20260509171004 23 233 4.8 16.1 0.00 0.00 0.00 57 1000.0
20260509170003 23 301 4.8 16.1 0.00 0.00 0.00 58 1000.3
20260509165003 22 335 11.3 12.9 0.00 0.00 0.00 60 1000.7
20260509164004 22 346 4.8 11.3 0.00 0.00 0.00 59 1000.7
20260509163004 22 310 4.8 19.3 0.00 0.00 0.00 60 1000.7
20260509162004 22 7 12.9 20.9 0.00 0.00 0.00 59 1000.7
20260509161005 22 359 16.1 20.9 0.00 0.00 0.00 60 1000.7
20260509160004 22 340 12.9 20.9 0.00 0.00 0.00 61 1000.7
20260509155003 21 344 8.0 19.3 0.00 0.00 0.00 61 1001.0
20260509154004 22 271 4.8 12.9 0.00 0.00 0.00 61 1001.0
20260509153004 21 314 3.2 14.5 0.00 0.00 0.00 62 1000.7
20260509151004 21 325 8.0 19.3 0.00 0.00 0.00 61 1001.0
20260509150004 22 353 4.8 12.9 0.00 0.00 0.00 62 1001.0
20260509145004 22 321 4.8 14.5 0.00 0.00 0.00 63 1001.0
20260509144003 21 20 11.3 16.1 0.00 0.00 0.00 67 1001.0
20260509143004 20 350 8.0 19.3 0.00 0.00 0.00 67 1001.4
20260509141005 19 332 4.8 19.3 0.00 0.00 0.00 69 1002.0